This is the latest recevied weather packets stored in our database for station/object WB5LFS-1. If no packets are shown the sender has not sent any weather packets the latest 10 day(s).
| Time | Temp. | Humidity | Pressure | Rain* | Wind** | Luminosity | Snow |
|---|---|---|---|---|---|---|---|
| 1777828311 | 15° C | 36% | 1017.3 hPa | 0 mm | - | - | - |
| 1777827412 | 14.44° C | 38% | 1017.4 hPa | 0 mm | - | - | - |
| 1777826512 | 14.44° C | 36% | 1017.5 hPa | 0 mm | - | - | - |
| 1777825611 | 14.44° C | 37% | 1017.6 hPa | 0 mm | - | - | - |
| 1777824712 | 13.89° C | 39% | 1018 hPa | 0 mm | - | - | - |
| 1777823812 | 13.89° C | 37% | 1018 hPa | 0 mm | - | - | - |
| 1777822912 | 13.33° C | 37% | 1018.1 hPa | 0 mm | - | - | - |
| 1777822012 | 13.33° C | 38% | 1018 hPa | 0 mm | - | - | - |
| 1777821112 | 12.78° C | 38% | 1018 hPa | 0 mm | - | - | - |
| 1777820212 | 12.78° C | 39% | 1018.1 hPa | 0 mm | - | - | - |
| 1777819312 | 12.78° C | 38% | 1017.9 hPa | 0 mm | - | - | - |
| 1777818412 | 12.22° C | 40% | 1018 hPa | 0 mm | - | - | - |
| 1777817512 | 12.22° C | 42% | 1017.9 hPa | 0 mm | - | - | - |
| 1777816612 | 11.67° C | 44% | 1018.1 hPa | 0 mm | - | - | - |
| 1777815712 | 11.67° C | 50% | 1017.9 hPa | 0 mm | - | - | - |
| 1777814812 | 11.11° C | 51% | 1017.8 hPa | 0 mm | - | - | - |
| 1777813912 | 10.56° C | 52% | 1017.8 hPa | 0 mm | - | - | - |
| 1777813012 | 10.56° C | 52% | 1017.8 hPa | 0 mm | - | - | - |
| 1777812112 | 10° C | 54% | 1017.8 hPa | 0 mm | - | - | - |
| 1777811212 | 10° C | 54% | 1017.7 hPa | 0 mm | - | - | - |
| 1777810312 | 9.44° C | 58% | 1017.4 hPa | 0 mm | - | - | - |
| 1777809412 | 8.89° C | 58% | 1017.4 hPa | 0 mm | - | - | - |
| 1777808512 | 8.89° C | 59% | 1017.1 hPa | 0 mm | - | - | - |
| 1777807612 | 8.33° C | 60% | 1017 hPa | 0 mm | - | - | - |
| 1777806712 | 7.78° C | 60% | 1016.7 hPa | 0 mm | - | - | - |
* Rain latest hour (hover to see other rain measurements)
** Current wind speed in m/s (hover to see current wind gust speed)